CW8809 Weather Reports


Display with metric or nautical units.
time (UTC)temp
F
wind
direction
speed
MPH
gust
MPH
rain 1hr
in
rain 24hr
in
rain mn
in
humidity
%
barometer
mb
20260503173809 57 292 0.0 0.0 0.04 0.26 0.14 63 1018.6
20260503172734 57 337 0.0 0.0 0.04 0.26 0.14 63 1018.3
20260503171700 57 337 0.0 0.0 0.04 0.24 0.12 62 1018.6
20260503170657 57 337 0.0 0.0 0.04 0.24 0.12 63 1019.0
20260503150501 57 315 0.0 0.0 0.04 0.16 0.04 66 1019.4
20260503131406 58 337 0.0 0.0 0.02 0.12 0.13 76 1020.3
20260503130404 58 315 0.0 0.0 0.02 0.12 0.13 76 1020.2
20260503110308 58 292 0.0 0.0 0.04 0.10 0.11 71 1020.1
20260503100225 58 292 0.0 0.0 0.06 0.10 0.11 75 1019.4
20260503090108 59 337 0.0 0.0 0.06 0.06 0.06 79 1020.0
20260503081057 60 225 0.0 0.0 0.00 0.00 0.00 82 1020.1
20260503072047 61 270 0.0 0.0 0.00 0.00 0.00 80 1019.8
20260503071045 62 225 0.0 0.0 0.00 0.00 0.00 80 1019.9
20260503054923 65 247 0.0 0.0 0.00 0.00 0.00 71 1020.2
20260503053921 65 247 0.0 0.0 0.00 0.00 0.00 71 1020.2
20260503052919 65 180 0.0 0.0 0.00 0.00 0.00 70 1020.2
20260503051917 65 180 0.0 0.0 0.00 0.00 0.00 71 1020.3
20260503050915 66 180 0.0 0.0 0.00 0.00 0.00 70 1020.4
20260503045913 66 247 0.0 0.0 0.00 0.00 0.00 69 1020.4
20260503044912 66 202 0.0 0.0 0.00 0.00 0.00 70 1020.4
20260503043910 66 247 0.0 0.0 0.00 0.00 0.00 68 1020.0
20260503042908 66 292 0.0 0.0 0.00 0.00 0.00 66 1020.1
20260503041906 66 202 0.0 0.0 0.00 0.00 0.00 65 1019.8
20260503040904 67 292 0.0 0.0 0.00 0.00 0.00 64 1019.8
20260503035902 67 315 0.0 0.0 0.00 0.00 0.00 63 1019.8
20260503034900 68 315 0.0 0.0 0.00 0.00 0.00 60 1019.8
20260503033857 69 315 0.0 0.0 0.00 0.00 0.00 61 1020.0
20260503032856 68 45 0.0 0.0 0.00 0.00 0.00 62 1019.9
20260503031822 67 292 0.0 0.0 0.00 0.00 0.00 65 1019.8
20260503030819 66 180 0.0 0.0 0.00 0.00 0.00 68 1019.8
20260503025817 65 247 0.0 0.0 0.00 0.00 0.00 71 1020.0
20260503024815 65 202 0.0 0.0 0.00 0.00 0.00 70 1020.0
20260503023814 65 292 0.0 0.0 0.00 0.00 0.00 71 1020.4
20260503022812 65 45 0.0 0.0 0.00 0.00 0.00 70 1020.7
20260503021809 64 135 0.0 0.0 0.00 0.00 0.00 72 1021.0
20260503020807 64 225 0.0 0.0 0.00 0.00 0.00 73 1021.7
20260503015733 64 157 0.0 0.0 0.00 0.00 0.00 74 1022.0
20260503014731 63 225 0.0 0.0 0.00 0.00 0.00 74 1022.0
20260503013729 63 292 0.0 0.0 0.00 0.00 0.00 75 1022.0
20260503012727 62 135 0.0 0.0 0.00 0.00 0.00 76 1022.3
20260503011653 62 135 0.0 0.0 0.00 0.00 0.00 77 1022.6
20260503010650 61 180 0.0 0.0 0.00 0.00 0.00 78 1022.6
20260503005648 61 180 0.0 0.0 0.00 0.00 0.00 80 1022.6
20260503004646 60 157 0.0 0.0 0.00 0.00 0.00 80 1022.5
20260503003643 59 202 0.0 0.0 0.00 0.00 0.00 80 1022.9
20260503002641 59 157 0.0 0.0 0.00 0.00 0.00 81 1022.8
20260503001639 58 135 0.0 0.0 0.00 0.00 0.00 82 1022.8
20260503000605 58 180 0.0 0.0 0.00 0.00 0.00 82 1023.1
20260502235532 57 135 0.0 0.0 0.00 0.00 0.00 83 1023.1
20260502234530 57 22 0.0 0.0 0.00 0.00 0.00 83 1023.1
20260502233529 57 157 0.0 0.0 0.00 0.00 0.00 83 1023.1
20260502232528 57 90 0.0 0.0 0.00 0.00 0.00 83 1023.1
20260502231525 56 157 0.0 0.0 0.00 0.00 0.00 82 1023.3
20260502230524 56 135 0.0 0.0 0.00 0.00 0.00 82 1023.3
20260502225522 55 202 0.0 0.0 0.00 0.00 0.00 82 1023.3
20260502224521 55 270 0.0 0.0 0.00 0.00 0.00 82 1023.0
20260502223519 55 247 0.0 0.0 0.00 0.00 0.00 81 1023.0
20260502222516 55 180 0.0 0.0 0.00 0.00 0.00 80 1023.0
20260502221514 54 157 0.0 0.0 0.00 0.00 0.00 79 1023.0
20260502220512 54 157 0.0 0.0 0.00 0.00 0.00 78 1022.9
20260502215438 53 67 0.0 0.0 0.00 0.00 0.00 79 1022.6
20260502214404 53 22 0.0 0.0 0.00 0.00 0.00 78 1022.5
20260502213402 53 0 0.0 0.0 0.00 0.00 0.00 78 1022.5
20260502212359 52 247 0.0 0.0 0.00 0.00 0.00 79 1022.2
20260502211358 52 247 0.0 0.0 0.00 0.00 0.00 79 1022.5
20260502210355 52 247 0.0 0.0 0.00 0.00 0.00 79 1022.5
20260502205353 51 22 0.0 0.0 0.00 0.00 0.00 80 1022.2
20260502204351 51 22 0.0 0.0 0.00 0.00 0.00 80 1021.8
20260502203349 52 22 0.0 0.0 0.00 0.00 0.00 80 1021.9
20260502202347 52 22 0.0 0.0 0.00 0.00 0.00 80 1021.9
20260502201344 52 0 0.0 0.0 0.00 0.00 0.00 80 1021.9
20260502200342 52 0 0.0 0.0 0.00 0.00 0.00 80 1021.9
20260502195341 52 22 0.0 0.0 0.00 0.00 0.00 79 1021.9
20260502194235 51 0 0.0 0.0 0.00 0.00 0.00 80 1021.5
20260502193232 51 22 0.0 0.0 0.00 0.00 0.00 81 1021.5
20260502192229 51 22 0.0 0.0 0.00 0.00 0.00 82 1021.5
20260502191227 51 22 0.0 0.0 0.00 0.00 0.00 82 1021.6
20260502190225 52 22 0.0 0.0 0.00 0.00 0.00 81 1021.6
20260502185223 52 22 0.0 0.0 0.00 0.00 0.00 81 1021.7
20260502184149 53 22 0.0 0.0 0.00 0.00 0.00 81 1021.7
20260502183147 53 22 0.0 0.0 0.00 0.00 0.00 81 1021.8
20260502182145 53 22 0.0 0.0 0.00 0.00 0.00 81 1021.8
20260502181143 53 45 0.0 0.0 0.00 0.00 0.00 81 1021.8
20260502180141 53 67 0.0 0.0 0.00 0.00 0.00 82 1021.8